Погода в Дербенте

Россия / Республика Дагестан     42°03′27″N   48°17′19″E
темп.,
°C
ветер,
м/с
пор.,
м/с
влажн.,
%
обл.,
%
осадки,
мм/ч
давл.,
гПа
погр.,
м
16 апреля, пт
пт1600:00+13ююз226097 0.0 101712
03:00+12з1154100 0.0 101811
06:00+13сз335412 0.0 101921
09:00+16с33445 0.0 1020484
12:00+17всв33420 0.0 1020654
15:00+17вюв344599 0.1 1019581
18:00+14юв236113 0.1 1020175
21:00+12ю33685 0.1 102029
17 апреля, сб
сб1700:00+12ю33690 0.0 101918
03:00+11ю22710 0.0 101913
06:00+12юв116678 0.0 101913
09:00+16в215153 0.0 1018310
12:00+18всв214792 0.0 1017543
15:00+17с5649100 0.0 1017476
18:00+15ссз5757100 0.0 1019264
21:00+14сз4562100 0.0 102172
18 апреля, вс
вс1800:00+14сз336168 0.0 102013
03:00+12ссз4569100 0.0 102085
06:00+13ссз1169100 0.0 102037
09:00+14ссз3367100 0.0 1019487
12:00+16с3355100 0.0 1018779
15:00+16ссв3345100 0.0 1017671
18:00+14с235125 0.0 1017128
21:00+12с115790 0.0 101717
19 апреля, пн
пн1900:00+11з1163100 0.0 101713
03:00+12ююз1167100 0.0 101611
06:00+13ссз2261100 0.0 101721
09:00+17в11435 0.0 1016394
12:00+19в32415 0.0 1016619
15:00+19вюв344446 0.0 1015471
18:00+15юв225599 0.0 1015146
21:00+14ююз335786 0.0 101545
20 апреля, вт
вт2000:00+14ю336115 0.0 101426
03:00+12ююв3363100 0.0 101237
06:00+13ю3459100 0.0 101181
09:00+18юв3351100 0.0 1009309
12:00+18юв555979 0.0 1006377
15:00+19в3356100 0.0 1004188
18:00+16ссв2265100 0.0 100355
21:00+16ссз1166100 0.1 100428